Regional Weather Roundup
Issued by NWS

Home | Current Version | Previous Version | Graphics & Text | Print | Product List | Glossary On
Versions: 1 2 3 4 5 6 7 8 9 10 11 12 13 14 15 16 17 18 19 20 21 22 23 24 25 26 27 28 29 30 31 32 33 34 35 36 37 38 39 40 41 42 43 44 45 46 47 48 49 50
000
ASUS45 KBOU 100510
RWRCO

WEATHER ROUNDUP FOR COLORADO
NATIONAL WEATHER SERVICE DENVER/BOULDER CO
1100 PM MDT WED JUL 09 2014

NOTE: "FAIR" INDICATES FEW OR NO CLOUDS BELOW 12000 FEET WITH NO
SIGNIFICANT WEATHER AND/OR OBSTRUCTIONS TO VISIBILITY.

COZ001>005-013-030-031-100600-
...NORTHWEST COLORADO...

CITY           SKY/WX    TMP DP  RH WIND       PRES   REMARKS
CRAIG          NOT AVBL
HAYDEN         CLOUDY    66  39  37 SE5       30.17F
MEEKER         NOT AVBL
MOUNT WERNER   CLOUDY    59  32  36 W7        30.50S
STEAMBOAT SPGS CLOUDY    62  45  53 CALM      30.20S
WALDEN         MOCLDY    54  43  66 SE8       30.29R
$$

COZ006>008-011-100600-
...WEST CENTRAL VALLEYS...

CITY           SKY/WX    TMP DP  RH WIND       PRES   REMARKS
GRAND JUNCTION MOCLDY    75  50  41 NW22G29   30.09R
MONTROSE       MOCLDY    73  44  35 E7        30.17R
EAGLE          MOCLDY    68  43  40 E5        30.21S
RIFLE          MOCLDY    70  45  40 SE10      30.12R
DELTA          MOCLDY    73  49  42 N6        30.12S
NUCLA          MOCLDY    68  54  60 E5        30.22R
$$

COZ017>023-064>068-100600-
...SOUTHWEST COLORADO...

CITY           SKY/WX    TMP DP  RH WIND       PRES   REMARKS
DURANGO        CLOUDY    63  53  70 NE8       30.27R
CORTEZ         NOT AVBL
PAGOSA SPRINGS CLOUDY    55  54  96 CALM      30.36S
TELLURIDE      MOCLDY    54  48  82 CALM      30.43R
WOLF CREEK PAS NOT AVBL
$$

COZ009-010-012-014-032>034-037-058>063-100600-
...CENTRAL COLORADO...

CITY           SKY/WX    TMP DP  RH WIND       PRES   REMARKS
ASPEN          NOT AVBL
BUENA VISTA    MOCLDY    64  40  40 CALM      30.32S
COPPER MTN     PTCLDY    54  34  47 S17       30.62F
BERTHOUD PASS  FAIR      45  32  61 SW10      30.66S
COTTONWOOD PAS MOCLDY    63  36  36 CALM      30.47S
GUNNISON       NOT AVBL
KREMMLING      PTCLDY    59  43  55 NE7       30.27S
LEADVILLE      MOCLDY    53  35  50 NE5       30.46S
MONARCH PASS   PTCLDY    46  37  71 SW20      30.73S
SALIDA         MOCLDY   N/A N/A N/A S7G16     30.35S
SUNLIGHT       MOCLDY    55  37  50 CALM      30.54S
WILKERSON PASS MOCLDY    50  36  57 S5        30.59F
$$

COZ069>075-100600-
...SAN LUIS VALLEY/SANGRE DE CRISTO MOUNTAINS...

CITY           SKY/WX    TMP DP  RH WIND       PRES   REMARKS
ALAMOSA        PTCLDY    58  46  64 S6        30.30R
LA VETA PASS   MOCLDY    52  37  58 SW12G17   30.48S
SAGUACHE       NOT AVBL
$$

COZ035-036-038>040-100600-
...NORTHERN COLORADO FRONT RANGE...

CITY           SKY/WX    TMP DP  RH WIND       PRES   REMARKS
DENVER INTL AP MOCLDY    74  45  35 SW10      30.04S
DMNS CITY PARK   N/A     72  46  39 W1        30.03S
AURORA         MOCLDY    72  46  40 SW10      30.07S
FRONT RANGE AP NOT AVBL
ERIE MUNI ARPT MOCLDY    69  46  44 E3        30.00S
BOULDER MUN AP MOCLDY    77  41  27 W15G24    30.00S
CENTENNIAL     NOT AVBL
BROOMFIELD     NOT AVBL
FORT COLLINS   CLEAR     70  52  52 CALM      30.01R
LONGMONT       CLEAR     68  49  49 CALM      30.01S
$$

COZ041-046-047-076>085-087-088-100600-
...PIKES PEAK/PALMER DIVIDE AND SOUTHERN FOOTHILLS...

CITY           SKY/WX    TMP DP  RH WIND       PRES   REMARKS
COLO. SPRINGS  MOCLDY    73  41  31 N6        30.11F
A. F. ACADEMY  MOCLDY    68  41  36 NE12      30.14F
ELLICOTT       NOT AVBL
FALCON         MOCLDY    66  40  37 NW8       30.18F
FORT CARSON    MOCLDY    76  41  28 SW5       30.07F
LIMON          PTCLDY    63  53  70 SE10      30.11R
MONUMENT HILL  MOCLDY    63  37  39 S6        30.18S
TRINIDAD       PTCLDY    67  47  48 CALM      30.13S
$$

COZ042>045-048>051-090-091-100600-
...NORTHEAST COLORADO...

CITY           SKY/WX    TMP DP  RH WIND       PRES   REMARKS
GREELEY ARPT   CLEAR     66  50  55 S5        29.99S
AKRON          NOT AVBL
BURLINGTON     CLOUDY    71  50  47 S24G31    30.00F
WRAY           PTCLDY    71  50  48 SW6       29.95R
STERLING       CLEAR     66  57  72 W7        29.94S
HOLYOKE        PTCLDY    70  63  78 S6        29.96R
FORT MORGAN    CLEAR     69  50  50 CALM      29.99S
$$

COZ086-089-092>099-100600-
...SOUTHEAST COLORADO...

CITY           SKY/WX    TMP DP  RH WIND       PRES   REMARKS
PUEBLO         PTCLDY    77  45  32 E8        30.02R
LA JUNTA       CLEAR     80  51  36 SW21G31   29.99R
LAMAR          CLOUDY    75  52  44 NE13G43   30.05R
SPRINGFIELD      N/A     72  50  45 SW15G23   30.07R
$$



USA.gov is the U.S. government's official web portal to all federal, state and local government web resources and services.